Location: Unspecified
(0.0000°N, 0.0000°E)
Time: 12:39:39
(UTC+01:00)

OPAL - Visible Passes

Search period start: 25 March 2017 00:00
Search period end: 04 April 2017 01:00
Orbit: 743 x 795 km, 100.2° (Epoch: 23 March)

Date Brightness Start Highest point End Pass type
(mag) Time Alt. Az. Time Alt. Az. Time Alt. Az.
25 Mar 7.3 05:34:49 10° NNE 05:39:46 84° WNW 05:44:43 10° SSW visible
26 Mar 9.0 05:59:58 10° NE 06:04:24 33° ESE 06:08:49 10° SSE visible
26 Mar 9.1 07:40:37 10° NW 07:43:00 13° WNW 07:45:22 10° WSW visible
27 Mar 10.4 05:27:26 10° E 05:29:03 12° ESE 05:30:41 10° SE visible
27 Mar 7.9 07:03:04 10° N 07:07:38 38° WNW 07:12:13 10° SW visible
28 Mar 7.6 06:27:21 10° NNE 06:32:16 73° ESE 06:37:13 10° S visible
29 Mar 9.5 05:52:54 10° NE 05:56:54 25° ESE 06:00:56 10° SSE visible
29 Mar 8.8 07:32:12 10° NNW 07:35:31 18° WNW 07:38:50 10° WSW visible
30 Mar 7.5 06:55:22 10° N 07:00:08 51° WNW 07:04:57 10° SSW visible
31 Mar 8.1 06:19:57 10° NNE 06:24:46 54° ESE 06:29:37 10° S visible
01 Apr 9.9 05:45:59 10° ENE 05:49:26 19° ESE 05:52:53 10° SSE visible
01 Apr 8.5 07:24:06 10° NNW 07:28:01 24° WNW 07:31:58 10° SW visible
02 Apr 7.3 06:47:45 10° N 06:52:39 70° WNW 06:57:35 10° SSW visible
03 Apr 8.7 06:12:40 10° NE 06:17:17 40° ESE 06:21:55 10° S visible
